This demonstration page uses our WeatherBlox Daily Observations layout. Learn more.

Left ArrowRight Arrow

Hourly Observations for June 20, 2022

Temp ( °F °C ) Dew Point ( °F °C ) Humidity (%) Winds ( mph kmh ) Pressure ( in mb ) Visibility ( mi km ) Precip ( " mm )
12:15 am 00:15 Clear 64 18 41 5 43 43 Calm 30.14 1021 10 16 0.00 0.00
12:35 am 00:35 Clear 64 18 39 4 40 40 N 6 9 30.15 1021 10 16 0.00 0.00
12:55 am 00:55 Clear 63 17 41 5 45 45 NNW 3 6 30.17 1022 10 16 0.00 0.00
1:15 am 01:15 Clear 64 18 37 3 37 37 NNE 5 7 30.16 1021 10 16 0.00 0.00
1:35 am 01:35 Clear 57 14 45 7 63 63 NNW 3 6 30.18 1022 10 16 0.00 0.00
1:55 am 01:55 Clear 61 16 43 6 52 52 Calm 30.18 1022 10 16 0.00 0.00
2:15 am 02:15 Clear 57 14 43 6 59 59 NW 3 6 30.18 1022 10 16 0.00 0.00
2:35 am 02:35 Clear 57 14 45 7 63 63 NW 3 6 30.18 1022 10 16 0.00 0.00
2:55 am 02:55 Clear 54 12 46 8 77 77 NW 3 6 30.19 1022 10 16 0.00 0.00
3:15 am 03:15 Clear 55 13 46 8 72 72 NW 3 6 30.19 1022 10 16 0.00 0.00
3:35 am 03:35 Clear 54 12 45 7 72 72 NNW 5 7 30.19 1022 10 16 0.00 0.00
3:55 am 03:55 Clear 54 12 45 7 72 72 NNW 3 6 30.18 1022 N/A 0.00 0.00
4:15 am 04:15 Clear 52 11 46 8 82 82 NW 3 6 30.19 1023 10 16 0.00 0.00
4:35 am 04:35 Clear 52 11 46 8 82 82 NNW 6 9 30.20 1023 10 16 0.00 0.00
4:55 am 04:55 Clear 52 11 45 7 77 77 NW 6 9 30.21 1023 10 16 0.00 0.00
5:15 am 05:15 Clear 54 12 45 7 72 72 NW 3 6 30.21 1023 10 16 0.00 0.00
5:35 am 05:35 Clear 55 13 43 6 63 63 Calm 30.21 1023 10 16 0.00 0.00
5:55 am 05:55 Sunny 57 14 43 6 59 59 NNW 3 6 30.21 1023 10 16 0.00 0.00
6:15 am 06:15 Sunny 55 13 45 7 67 67 Calm 30.22 1023 10 16 0.00 0.00
6:35 am 06:35 Sunny 55 13 46 8 72 72 Calm 30.23 1024 10 16 0.00 0.00
6:55 am 06:55 Sunny 55 13 45 7 67 67 Calm 30.23 1024 10 16 0.00 0.00
7:15 am 07:15 Sunny 55 13 46 8 72 72 Calm 30.24 1024 10 16 0.00 0.00
7:35 am 07:35 Sunny 61 16 50 10 68 68 Calm 30.26 1025 N/A 0.00 0.00
7:55 am 07:55 Partly Cloudy 63 17 45 7 52 52 Calm 30.25 1024 N/A 0.00 0.00
8:15 am 08:15 Sunny 63 17 46 8 56 56 Calm 30.25 1024 N/A 0.00 0.00
8:35 am 08:35 Partly Cloudy 64 18 46 8 52 52 Calm 30.24 1024 N/A 0.00 0.00
8:55 am 08:55 Sunny 68 20 50 10 53 53 WNW 5 7 30.23 1024 N/A 0.00 0.00
9:15 am 09:15 Sunny 70 21 46 8 43 43 NW 7 11 30.23 1024 N/A 0.00 0.00
9:35 am 09:35 Sunny 70 21 46 8 43 43 NNW 8 13 30.23 1024 N/A 0.00 0.00
9:55 am 09:55 Sunny 72 22 52 11 50 50 WNW 8 13 30.23 1024 N/A 0.00 0.00
10:15 am 10:15 Sunny 72 22 50 10 47 47 NNW 7 11 30.22 1023 N/A 0.00 0.00
10:35 am 10:35 Partly Cloudy 72 22 46 8 41 41 NW 9 15 30.22 1023 N/A 0.00 0.00
10:55 am 10:55 Partly Cloudy 70 21 46 8 43 43 WNW 10 17 30.23 1024 N/A 0.00 0.00
11:15 am 11:15 Sunny 73 23 48 9 41 41 NNW 9 15 30.22 1023 N/A 0.00 0.00
11:35 am 11:35 Sunny 73 23 50 10 44 44 NNW 8 13 30.22 1023 N/A 0.00 0.00
11:55 am 11:55 Sunny 75 24 50 10 41 41 NNW 6 9 30.22 1023 N/A 0.00 0.00
12:15 pm 12:15 Partly Cloudy 75 24 50 10 41 41 WNW 6 9 30.22 1023 N/A 0.00 0.00
12:35 pm 12:35 Mostly Cloudy 73 23 46 8 38 38 N 8 13 30.22 1023 N/A 0.00 0.00
12:55 pm 12:55 Mostly Cloudy 75 24 50 10 41 41 N 8 13 30.22 1023 N/A 0.00 0.00
1:15 pm 13:15 Mostly Cloudy 77 25 50 10 39 39 NW 5 7 30.20 1023 N/A 0.00 0.00
1:35 pm 13:35 Partly Cloudy 77 25 48 9 36 36 WNW 7 11 30.20 1023 N/A 0.00 0.00
1:55 pm 13:55 Sunny 77 25 45 7 32 32 N 9 15 30.20 1023 N/A 0.00 0.00
2:15 pm 14:15 Sunny 77 25 45 7 32 32 NW 8 13 30.19 1022 N/A 0.00 0.00
2:35 pm 14:35 Sunny 77 25 45 7 32 32 NNW 8 13 30.19 1022 N/A 0.00 0.00
2:55 pm 14:55 Sunny 77 25 43 6 30 30 NNW 7 11 30.19 1022 N/A 0.00 0.00
3:15 pm 15:15 Sunny 77 25 45 7 32 32 NW 14 22 30.19 1022 N/A 0.00 0.00
3:35 pm 15:35 Sunny 77 25 45 7 32 32 NW 12 19 30.18 1022 N/A 0.00 0.00
3:55 pm 15:55 Sunny 79 26 46 8 32 32 NNW 12 19 30.18 1022 N/A 0.00 0.00
4:15 pm 16:15 Sunny 79 26 50 10 37 37 N 10 17 30.18 1022 N/A 0.00 0.00
4:35 pm 16:35 Sunny 79 26 50 10 37 37 NNW 8 13 30.17 1022 N/A 0.00 0.00
4:55 pm 16:55 Partly Cloudy 79 26 52 11 39 39 NW 3 6 30.18 1022 N/A 0.00 0.00
5:15 pm 17:15 Partly Cloudy 79 26 52 11 39 39 N 8 13 30.17 1022 N/A 0.00 0.00
5:35 pm 17:35 Partly Cloudy 79 26 54 12 42 42 N 3 6 30.16 1021 N/A 0.00 0.00
5:55 pm 17:55 Sunny 79 26 52 11 39 39 NW 6 9 30.15 1021 N/A 0.00 0.00
6:15 pm 18:15 Sunny 77 25 52 11 42 42 NW 7 11 30.16 1021 N/A 0.00 0.00
6:35 pm 18:35 Partly Cloudy 77 25 54 12 44 44 WNW 6 9 30.15 1021 10 16 0.00 0.00
6:55 pm 18:55 Sunny 77 25 54 12 44 44 NW 6 9 30.15 1021 10 16 0.00 0.00
7:15 pm 19:15 Sunny 77 25 55 13 47 47 W 6 9 30.15 1021 10 16 0.00 0.00
7:35 pm 19:35 Sunny 75 24 55 13 50 50 WNW 3 6 30.16 1021 10 16 0.00 0.00
7:55 pm 19:55 Sunny 75 24 55 13 50 50 W 5 7 30.15 1021 10 16 0.00 0.00
8:15 pm 20:15 Sunny 73 23 59 15 61 61 W 3 6 30.15 1021 10 16 0.00 0.00
8:35 pm 20:35 Sunny 72 22 57 14 61 61 W 5 7 30.14 1021 10 16 0.00 0.00
8:55 pm 20:55 Clear 72 22 55 13 57 57 Calm 30.15 1021 10 16 0.00 0.00
9:15 pm 21:15 Mostly Cloudy 70 21 59 15 69 69 WSW 5 7 30.14 1021 10 16 0.00 0.00
9:35 pm 21:35 Mostly Cloudy 70 21 59 15 69 69 W 5 7 30.15 1021 10 16 0.00 0.00
9:55 pm 21:55 Partly Cloudy 68 20 57 14 69 69 WNW 3 6 30.17 1022 10 16 0.00 0.00
10:15 pm 22:15 Cloudy 70 21 54 12 57 57 NW 7 11 30.17 1022 10 16 0.00 0.00
10:35 pm 22:35 Partly Cloudy 70 21 54 12 57 57 NW 7 11 30.17 1022 10 16 0.00 0.00
10:55 pm 22:55 Partly Cloudy 70 21 54 12 57 57 NW 7 11 30.17 1022 10 16 0.00 0.00
11:15 pm 23:15 Mostly Cloudy 70 21 54 12 57 57 NW 7 11 30.18 1022 10 16 0.00 0.00
11:35 pm 23:35 Partly Cloudy 68 20 54 12 60 60 NNW 6 9 30.19 1022 10 16 0.00 0.00
11:55 pm 23:55 Clear 70 21 52 11 53 53 Calm 30.19 1022 10 16 0.00 0.00

Powered by AerisWeather